User: anonymous   Login
Location: Pallagorio
(39.3000°N, 16.9000°E)
Time: 21:20:53
(UTC+00:00)
Language:

Meteor 1-27 - Orbit

View from above orbital plane
View from above orbital plane
View from above satellite
View from above satellite

Ground track
Ground track

The orbit data is extracted from the following two-line orbital elements,

1 09903U 77024A   21104.52442691 -.00000051  00000-0 -36492-4 0  9998
2 09903  81.2533 167.6749 0036992 302.9751  56.7865 14.08276853261551
Epoch (UTC): 14 April 2021 12:35:10
Eccentricity: 0.0036992
inclination: 81.2533°
perigee height: 838 km
apogee height: 892 km
right ascension of ascending node: 167.6749°
argument of perigee: 302.9751°
revolutions per day: 14.08276853
mean anomaly at epoch: 56.7865°
orbit number at epoch: 26155

The dashed part of the orbit path shows where the satellite is in the earth's shadow,  

DLR